EW1104 Weather Reports


time (UTC)temp
F
wind
direction
speed
knots
gust
knots
rain 1hr
in
rain 24hr
in
rain mn
in
humidity
%
barometer
mb
20260505194507 83 281 0.9 10.4 0.00 0.00 0.00 31 1007.9
20260505193005 85 233 0.0 2.6 0.00 0.00 0.00 35 1008.0
20260505191606 84 205 1.7 4.3 0.00 0.00 0.00 32 1008.4
20260505190001 84 150 1.7 5.2 0.00 0.00 0.00 34 1008.5
20260505184559 84 68 1.7 6.1 0.00 0.00 0.00 34 1008.5
20260505183056 83 236 1.7 5.2 0.00 0.00 0.00 34 1009.0
20260505181638 82 252 1.7 7.0 0.00 0.00 0.00 36 1008.8
20260505180103 82 249 0.9 5.2 0.00 0.00 0.00 37 1009.2
20260505174551 82 152 0.0 2.6 0.00 0.00 0.00 41 1009.2
20260505173050 82 228 0.9 2.6 0.00 0.00 0.00 39 1009.4
20260505171558 82 216 0.0 4.3 0.00 0.00 0.00 40 1009.5
20260505170048 83 163 0.0 2.6 0.00 0.00 0.00 40 1009.6
20260505164547 82 184 0.0 3.5 0.00 0.00 0.00 39 1009.7
20260505163047 82 89 0.0 1.7 0.00 0.00 0.00 42 1010.0
20260505161547 82 246 0.0 1.7 0.00 0.00 0.00 41 1010.1
20260505153041 80 228 0.0 1.7 0.00 0.00 0.00 42 1010.6
20260505151529 78 145 0.0 4.3 0.00 0.00 0.00 46 1010.7
20260505124553 65 207 0.0 2.6 0.00 0.00 0.00 65 1011.2
20260505123057 64 193 0.0 4.3 0.00 0.00 0.00 65 1011.0
20260505121550 64 266 0.0 2.6 0.00 0.00 0.00 66 1011.0
20260505120104 63 207 0.0 3.5 0.00 0.00 0.00 66 1011.1
20260505114542 62 207 0.0 4.3 0.00 0.00 0.00 69 1011.1
20260505113038 60 219 0.0 1.7 0.00 0.00 0.00 72 1011.1
20260505111536 59 194 0.0 1.7 0.00 0.00 0.00 75 1011.0
20260505101528 56 111 0.0 0.9 0.00 0.00 0.00 79 1010.9
20260505100027 57 88 0.0 0.9 0.00 0.00 0.00 78 1010.8
20260505094525 57 81 0.0 0.9 0.00 0.00 0.00 76 1010.7
20260505093025 58 218 0.0 0.9 0.00 0.00 0.00 74 1010.2
20260505091523 58 210 0.0 3.5 0.00 0.00 0.00 75 1010.0
20260505090021 57 205 0.0 0.9 0.00 0.00 0.00 75 1010.1
20260505084515 57 156 0.0 1.7 0.00 0.00 0.00 74 1010.1
20260505083010 57 139 0.0 2.6 0.00 0.00 0.00 74 1010.1
20260505081506 57 205 0.0 1.7 0.00 0.00 0.00 74 1010.1
20260505080006 57 198 0.0 0.9 0.00 0.00 0.00 74 1010.2
20260505074504 57 195 0.0 1.7 0.00 0.00 0.00 75 1010.1
20260505073004 57 156 0.0 2.6 0.00 0.00 0.00 75 1010.3
20260505071502 57 160 0.0 0.9 0.00 0.00 0.00 75 1010.1
20260505070002 57 211 0.0 1.7 0.00 0.00 0.00 75 1010.1
20260505064702 57 176 0.0 0.9 0.00 0.00 0.00 75 1010.1
20260505063106 57 137 0.0 0.9 0.00 0.00 0.00 75 1010.1
20260505061600 57 215 0.0 0.9 0.00 0.00 0.00 75 1010.2
20260505060057 56 211 0.0 0.9 0.00 0.00 0.00 75 1010.2
20260505054555 56 165 0.0 0.9 0.00 0.00 0.00 74 1010.4
20260505053054 56 198 0.0 1.7 0.00 0.00 0.00 73 1010.4
20260505051553 56 176 0.0 2.6 0.00 0.00 0.00 73 1010.4
20260505041551 57 160 0.0 0.9 0.00 0.00 0.00 69 1010.7
20260505040048 57 191 0.0 0.9 0.00 0.00 0.00 67 1010.6
20260505034604 58 156 0.0 0.9 0.00 0.00 0.00 66 1010.7
20260505033044 58 186 0.0 0.9 0.00 0.00 0.00 63 1010.8
20260505031545 59 188 0.0 1.7 0.00 0.00 0.00 61 1010.8
20260505030048 59 173 0.0 0.9 0.00 0.00 0.00 59 1010.9
20260505024541 60 155 0.0 1.7 0.00 0.00 0.00 57 1010.9
20260505023045 60 172 0.0 0.9 0.00 0.00 0.00 55 1010.9
20260505021542 60 252 0.0 0.9 0.00 0.00 0.00 53 1011.1
20260505020054 61 154 0.0 0.9 0.00 0.00 0.00 50 1011.0
20260505014542 62 193 0.0 0.9 0.00 0.00 0.00 49 1011.0
20260505013042 62 149 0.0 0.0 0.00 0.00 0.00 47 1010.8
20260505011540 63 224 0.0 0.0 0.00 0.00 0.00 46 1010.7
20260505010047 63 153 0.0 0.9 0.00 0.00 0.00 45 1010.5
20260505004557 63 138 0.0 0.9 0.00 0.00 0.00 45 1010.3
20260505003038 64 174 0.0 0.9 0.00 0.00 0.00 44 1010.2
20260505001540 65 222 0.0 1.7 0.00 0.00 0.00 43 1010.1
20260505000038 65 208 0.0 0.9 0.00 0.00 0.00 42 1009.9
20260504234537 66 218 0.0 3.5 0.00 0.00 0.00 41 1009.7
20260504233036 67 215 0.0 1.7 0.00 0.00 0.00 40 1009.4
20260504231540 67 205 0.0 1.7 0.00 0.00 0.00 39 1009.4
20260504230037 68 214 0.0 1.7 0.00 0.00 0.00 39 1009.1
20260504224539 68 217 0.0 1.7 0.00 0.00 0.00 38 1009.2
20260504223034 69 19 0.0 0.9 0.00 0.00 0.00 38 1009.3
20260504221540 70 222 0.0 2.6 0.00 0.00 0.00 37 1009.3
20260504220031 70 229 0.0 3.5 0.00 0.00 0.00 37 1009.4
20260504214531 71 211 0.0 1.7 0.00 0.00 0.00 35 1009.6
20260504213038 73 243 0.0 2.6 0.00 0.00 0.00 36 1009.6
20260504211534 74 276 0.0 1.7 0.00 0.00 0.00 34 1009.8
20260504210030 75 246 0.0 2.6 0.00 0.00 0.00 34 1009.8
20260504204533 76 208 0.0 1.7 0.00 0.00 0.00 31 1009.7
20260504203027 76 203 0.0 3.5 0.00 0.00 0.00 32 1009.8
20260504201527 75 231 0.0 1.7 0.00 0.00 0.00 30 1009.8
20260504200026 75 232 0.0 2.6 0.00 0.00 0.00 32 1009.9